DELTA 1 DEB, 23309

Orbit data source: Space-Track

DELTA 1 DEB, 23309 is space debris in SSO originally from a launch on Thu, 12 Jun 1975 UTC launched from the Air Force Western Test Range (AFWTR). Debris objects in space refer to the collection of defunct objects orbiting the Earth. Examples of debris include non-operational satellites, rocket bodies, and fragments generated from explosions, collisions, or faulty payload assembly.

Loading next visibility...
Identifier
23309, 1975-052JY
Orbit
SSO
Country
Flag of USUS
Related business
Manufacturer
Unknown
Mission
Spacecraft
Bus & Motor
Unknown
Mass
Unknown
Launch date (UTC)
1975-06-12 (51 years ago)
Launch vehicle
Unknown
Launch site
Air Force Western Test Range (AFWTR)
Object type
Payload
Rocket body
Debris
Shape & HBR
Unknown shape, 0.1 m
Radar Cross Section
Small (<0.1 m²)

Expand to show TLE details & history
Last TLE update: 13 hours ago

TLE from 13 hours ago
0 DELTA 1 DEB
1 23309U 75052JY  26034.63401188  .00000477  00000-0  18178-2 0  9997
2 23309  99.7080 285.8180 0395546  17.1118  11.2201 12.72450643608976
Epoch: 2026-02-03T15:12Z
TLE epoch observation values (Epoch: 2026-02-03T15:12:58.626Z)
Latitude
28.84692°
Longitude
-81.61748°
Altitude
1,075.096 km
Speed
7.457 km/s
True Right ascension
18h 41m 45s
True Declination
28° 42' 29"
Sunlit
Object was in daylight at epoch
Visualization orbit readout
Latitude
Unknown
Longitude
Unknown
Altitude
Unknown
Speed
Unknown
Apparent Right ascension
Unknown
Apparent Declination
Unknown
Sunlit
N/A
Visualization observer readout
Local Sidereal Time
06:25:52
Azimuth
Unknown
Elevation
Unknown
Doppler factor
Unknown
Orbital elements
Apogee altitude
1,675.823 km
Perigee altitude
1,062.924 km
Semi-major axis
7,747.511 km
Eccentricity
0.03955
Inclination
99.708°
RAAN
285.818°
Arg. of periapsis
17.1118°
True anomaly
12.14687°
Mean anomaly
11.2201°
Eccentric anomaly
11.67886°
Mean motion
3.18273 °/min
Orbital period
113.11 mins
BSTAR
0.0018178
Loading maneuver chart data...
Computing Atmospheric mass density...
Loading historical data...
Loading historical data...
Loading historical data...
Loading historical data...
Loading historical data...
Loading historical data...
Loading historical data...

Documentation

Showing up to 5 results
|